Regional Weather Roundup
Issued by NWS

Home | Current Version | Previous Version | Graphics & Text | Print | Product List | Glossary On
Versions: 1 2 3 4 5 6 7 8 9 10 11 12 13 14 15 16 17 18 19 20 21 22 23 24 25 26 27 28 29 30 31 32 33 34 35 36 37 38 39 40 41 42 43 44 45 46 47 48 49 50
000
ASUS43 KLSX 240307
RWRMO

WEATHER SUMMARY FOR MISSOURI
NATIONAL WEATHER SERVICE SPRINGFIELD MO
1000 PM CDT TUE AUG 23 2016

NOTE: "FAIR" INDICATES FEW OR NO CLOUDS BELOW 12,000 FEET WITH NO
       SIGNIFICANT WEATHER AND/OR OBSTRUCTIONS TO VISIBILITY.
       CURRENT SKY AND/OR WEATHER CONDITIONS ARE NOT AVAILABLE FOR
       CHILLICOTHE AND FARMINGTON.

MOZ001>031-035>038-043-044-053-054-240400-
...NORTHERN AND WESTERN MISSOURI...

CITY           SKY/WX    TMP DP  RH WIND       PRES   REMARKS
KANSAS CTY INT CLOUDY    80  70  71 S18G26    29.94R
KANSAS C DTWN  PTCLDY    82  71  69 S15G23    29.94R
LEE`S SUMMIT   CLOUDY    80  71  74 S15       29.97R
ST JOSEPH      CLOUDY    80  72  76 S15       29.91R
CHILLICOTHE      N/A     78  73  84 S9G17     29.97R
KIRKSVILLE     CLEAR     74  71  91 S9        29.99F

$$
MOZ066>068-077>081-088>096-101>105-240400-
...SOUTHWEST MISSOURI...

CITY           SKY/WX    TMP DP  RH WIND       PRES   REMARKS
SPRINGFIELD    CLEAR     78  70  76 S14       30.06R
JOPLIN         PTCLDY    79  69  71 S14       30.03R
BRANSON        CLEAR     75  72  88 S7        30.11S

$$
MOZ032>034-039>042-045>050-055>058-069>072-240400-
...CENTRAL MISSOURI...

CITY           SKY/WX    TMP DP  RH WIND       PRES   REMARKS
COLUMBIA       CLOUDY    74  74 100 SE8       30.04R
JEFFERSON CITY CLOUDY    75  74  96 SE6       30.03R
ROLLA          CLOUDY    75  73  93 S10       30.06S
SEDALIA        CLOUDY    78  74  87 S12       30.02R
WHITEMAN AFB   PTCLDY    78  75  91 S16       29.98F
OSAGE BEACH    CLEAR     77  73  87 S7        30.06R

$$
MOZ051-052-059>065-240400-
...EAST CENTRAL MISSOURI...

CITY           SKY/WX    TMP DP  RH WIND       PRES   REMARKS
ST LOUIS INTL  MOCLDY    76  70  82 SE9       30.09F
SPIRIT OF STL  CLOUDY    75  72  90 SE6       30.07S
ST CHARLES     MOCLDY    72  71  97 E7        30.08S

$$
MOZ072>076-082>087-097>100-106>115-240400-
...SOUTH CENTRAL AND SOUTHEAST MISSOURI...

CITY           SKY/WX    TMP DP  RH WIND       PRES   REMARKS
CAPE GIRARDEAU CLOUDY    75  72  90 S7        30.12R
FARMINGTON     PTCLDY    74  73  97 S8        30.12S
POPLAR BLUFF   CLOUDY    77  75  93 SE7       30.11R
WEST PLAINS    CLEAR     77  71  82 S9        30.14R

$$



USA.gov is the U.S. government's official web portal to all federal, state and local government web resources and services.